Regional Weather Roundup
Issued by NWS Green Bay, WI

Home | Current Version | Previous Version | Graphics & Text | Print | Product List | Glossary Off
Versions: 1 2 3 4 5 6 7 8 9 10 11 12 13 14 15 16 17 18 19 20 21 22 23 24 25 26 27 28 29 30 31 32 33 34 35 36 37 38 39 40 41 42 43 44 45 46 47 48 49 50

000
ASUS43 KGRB 260000
RWRGRB

NORTH-CENTRAL AND NORTHEAST WISCONSIN REGIONAL WEATHER ROUNDUP
NATIONAL WEATHER SERVICE GREEN BAY WI
700 PM CDT SUN JUN 25 2017

WIZ005-009-010>012-018-019-260100-
NORTH CENTRAL WISCONSIN

CITY           SKY/WX    TMP DP  RH WIND       PRES   REMARKS
IRONWOOD       CLOUDY    51  49  92 NW12G20   30.06R
MANITOWISH WTR NOT AVBL
ARBOR VITAE    NOT AVBL
EAGLE RIVER    NOT AVBL
LAND O LAKES   LGT RAIN  53  50  92 W5        30.04R
RHINELANDER    MOSUNNY   54  50  86 W9G20     30.05R
PHILLIPS       NOT AVBL
ANTIGO         NOT AVBL
TOMAHAWK       NOT AVBL
MERRILL        PTSUNNY   57  48  72 NW13G20   30.06R
$$

WIZ013-073-260100-
NORTHEAST WISCONSIN

CITY           SKY/WX    TMP DP  RH WIND       PRES   REMARKS
IRON MOUNTAIN  LGT RAIN  55  52  89 CALM      30.00F
MARINETTE      CLOUDY    60  56  86 NE5       30.00S
$$

WIZ017-030-035>037-045-260100-
CENTRAL WISCONSIN

CITY           SKY/WX    TMP DP  RH WIND       PRES   REMARKS
MEDFORD        NOT AVBL
WAUSAU         PTSUNNY   59  48  67 NW14G23   30.04R
MOSINEE        PTSUNNY   55  52  88 NW13G20   30.07R
MARSHFIELD     SUNNY     59  49  69 NW14G20   30.07S
WISC RAPIDS    PTSUNNY   59  54  83 NW8       30.08S
STEVENS POINT  NOT AVBL
WAUPACA        CLOUDY    61  57  87 W5        30.05S
SHAWANO        NOT AVBL
CLINTONVILLE   CLOUDY    61  50  67 NW10G20   30.03S
WAUTOMA        PTSUNNY   58  55  90 W8        30.08R
$$

WIZ038-039-048-051-260100-
FOX VALLEY

CITY           SKY/WX    TMP DP  RH WIND       PRES   REMARKS
NWS GREEN BAY  PTSUNNY   59  55  87 W12       30.03R
APPLETON       PTSUNNY   55  52  88 W9        30.03R
OSHKOSH        LGT RAIN  58  53  84 W7        30.05R
FOND DU LAC    LGT RAIN  59  51  75 W10       30.06R
$$

WIZ022-050-052-260100-
EAST CENTRAL WISCONSIN

CITY           SKY/WX    TMP DP  RH WIND       PRES   REMARKS
EPHRAIM        NOT AVBL
WASHINGTON ISL NOT AVBL
STURGEON BAY     N/A     59  54  83 NW3         N/A
MANITOWOC      NOT AVBL
SHEBOYGAN      CLOUDY    61  56  83 W9        30.03R
$$

LMZ563-521-522-541>543-260100-
LAKESHORE

STATION/POSITION TIME  TEMP    WIND        PRES    VSBY  WAVE
                       AIR SEA DIR/SP/G                  HT/PER
                 (UTC) (F)     (DEG/KT/KT) (MB)    (MI)  (FT/S)
SHEBOYGAN LKSHOR 2300   67     280/ 14/ 18 1016.0R
KEWAUNEE LKSHORE 2330   58     190/  6/  7 1015.4S
NORTHPORT PIER   2340   58     290/  2/  5 1015.6R
N MID LAKE BUOY  2250   58 57  210/ 10/ 10 1015.8R         1/ 5
S GREEN BAY BUOY 2330   60     290/  8/ 12 1015.4S
CHAMBERS ISLAND  2340   59     330/  3/  6 1015.6R
MENOMINEE LKSHOR 2330          180/  4/  5 1014.9R
$$




USA.gov is the U.S. government's official web portal to all federal, state and local government web resources and services.